Location: Newark
(47.5833°N, 8.1500°E)
Time: 08:34:03
(UTC+00:00)

Vanguard 1 - Pass Details

Date: 02 November 2020
Orbit: 650 x 3833 km, 34.2° (Epoch: 29 November)

Event Time Altitude Azimuth Distance (km) Brightness Sun altitude
Rises 18:13:22 0° 281° (W) 7,817 16.1 -21.5°
Reaches altitude 10° 18:22:01 10° 265° (W) 6,383 15.3 -23.0°
Maximum altitude 18:31:48 16° 234° (SW) 5,115 14.2 -24.6°
Drops below altitude 10° 18:39:35 10° 202° (SSW) 4,879 13.8 -25.9°
Sets 18:44:45 0° 182° (S) 5,288 13.8 -26.8°
